Location: Kuppenheim
(48.8299°N, 8.2568°E)
Time: 09:43:01
(UTC+00:00)

X-37B - Pass Details

Date: 20 June 2021
Orbit: 383 x 392 km, 45.0° (Epoch: 01 July)

Event Time Altitude Azimuth Distance (km) Brightness Sun altitude
Exits shadow 00:28:43 33° 138° (SE) 672 1.5 -16.5°
Drops below altitude 10° 00:30:55 10° 105° (ESE) 1,406 3.4 -16.4°
Sets 00:33:02 0° 98° (E) 2,262 4.6 -16.3°
